Weather History for Cheboygan, MI

Change the Weather History Date:

Saturday, April 27, 2013

  Actual Average (KPLN) Record (KPLN)
Temperature  
Mean Temperature 48 °F -  
Max Temperature 60 °F 60 °F 91 °F (1986)
Min Temperature 36 °F 33 °F 18 °F (1958)
Degree Days  
Heating Degree Days 17    
Moisture  
Dew Point 41 °F    
Average Humidity 78    
Maximum Humidity 95    
Minimum Humidity 55    
Precipitation  
Precipitation 0.00 in - - ()
Sea Level Pressure  
Sea Level Pressure 30.17 in    
Wind  
Wind Speed 4 mph (ENE)    
Max Wind Speed 12 mph    
Max Gust Speed 17 mph    
Visibility 8 miles    
Events Fog    
Averages and records for this station are not official NWS values.
T = Trace of Precipitation, MM = Missing Value Source: NWS Daily Summary

Daily Weather History Graph

Daily Weather History Graph

Search for Another Location

Airport:

Trip Planner

Search our weather history database for the weather conditions in past years. The results will help you decide how hot, cold, wet, or windy it might be!

Date:

Astronomy

Apr. 27, 2013 Rise Set
Actual Time 6:31 AM EDT 8:40 PM EDT
Civil Twilight 5:59 AM EDT 9:12 PM EDT
Nautical Twilight 5:19 AM EDT 9:53 PM EDT
Astronomical Twilight 4:35 AM EDT 10:37 PM EDT
Moon 11:14 PM EDT (4/27) 7:44 AM EDT (4/27)
Length of Visible Light 15h 13m
Length of Day
14h 08m
Waning Gibbous, 95% of the Moon is Illuminated
Apr 27
Waning Gibbous
May 2
Last Quarter
May 9
New
May 18
First Quarter
May 25
Full

Hourly Weather History & Observations

Time (EDT) Temp. Windchill Dew Point Humidity Pressure Visibility Wind Dir Wind Speed Gust Speed Precip Events Conditions
12:15 AM 40.1 °F - 36.5 °F 87% 30.20 in 10.0 mi Calm Calm - N/A   Overcast
12:35 AM 40.1 °F 38.0 °F 35.4 °F 83% 30.20 in 10.0 mi ESE 3.5 mph - N/A   Mostly Cloudy
12:55 AM 41.2 °F 35.0 °F 36.1 °F 82% 30.21 in 10.0 mi SSE 10.4 mph 17.3 mph N/A   Mostly Cloudy
1:15 AM 41.9 °F 38.2 °F 36.0 °F 79% 30.21 in 10.0 mi SW 5.8 mph - N/A   Overcast
1:35 AM 41.9 °F 40.0 °F 37.4 °F 84% 30.21 in 10.0 mi South 3.5 mph - N/A   Overcast
1:54 AM 41.9 °F - 38.3 °F 87% 30.21 in 10.0 mi Calm Calm - N/A   Overcast
2:15 AM 41.9 °F - 38.8 °F 89% 30.20 in 7.0 mi Calm Calm - N/A   Overcast
2:35 AM 42.1 °F - 39.0 °F 89% 30.20 in 10.0 mi Calm Calm - N/A   Overcast
2:55 AM 42.6 °F 39.0 °F 38.8 °F 86% 30.19 in 10.0 mi South 5.8 mph - N/A   Overcast
3:15 AM 42.8 °F 40.1 °F 39.2 °F 87% 30.18 in 10.0 mi South 4.6 mph - N/A   Overcast
3:34 AM 42.3 °F - 39.4 °F 90% 30.18 in 7.0 mi Calm Calm - N/A   Mostly Cloudy
3:55 AM 42.1 °F 40.2 °F 39.6 °F 91% 30.18 in 7.0 mi SSW 3.5 mph - N/A   Scattered Clouds
4:15 AM 41.9 °F 38.2 °F 39.9 °F 93% 30.18 in 7.0 mi SSW 5.8 mph - N/A   Clear
4:35 AM 45.1 °F - 42.8 °F 91% 30.18 in 10.0 mi Calm Calm - N/A   Clear
4:55 AM 40.6 °F - 38.5 °F 92% 30.19 in 4.0 mi Calm Calm - N/A   Clear
5:15 AM 39.2 °F - 37.4 °F 93% 30.18 in 0.2 mi Calm Calm - N/A Fog Fog
5:35 AM 40.5 °F - 38.8 °F 94% 30.18 in 1.8 mi Calm Calm - N/A   Mist
5:55 AM 37.2 °F - 35.6 °F 94% 30.18 in 0.5 mi Calm Calm - N/A Fog Fog
6:15 AM 37.4 °F - 35.8 °F 94% 30.18 in 0.2 mi Calm Calm - N/A Fog Fog
6:35 AM 37.2 °F - 35.6 °F 94% 30.18 in 0.2 mi Calm Calm - N/A Fog Fog
6:55 AM 36.3 °F - 34.9 °F 95% 30.19 in 0.5 mi Calm Calm - N/A Fog Fog
7:15 AM 37.4 °F - 35.8 °F 94% 30.18 in 0.8 mi Calm Calm - N/A   Mist
7:34 AM 37.4 °F - 36.0 °F 95% 30.19 in 1.8 mi Calm Calm - N/A   Mist
7:55 AM 41.0 °F - 39.6 °F 95% 30.19 in 1.2 mi Calm Calm - N/A   Mist
8:15 AM 43.5 °F - 42.3 °F 95% 30.20 in 4.0 mi Calm Calm - N/A   Clear
8:35 AM 46.9 °F - 45.7 °F 95% 30.20 in 7.0 mi Calm Calm - N/A   Clear
8:55 AM 55.2 °F - 48.7 °F 79% 30.20 in 10.0 mi WSW 10.4 mph 16.1 mph N/A   Clear
9:15 AM 57.4 °F - 46.9 °F 68% 30.20 in 10.0 mi WSW 9.2 mph - N/A   Clear
9:35 AM 58.8 °F - 46.6 °F 64% 30.20 in 10.0 mi WSW 10.4 mph - N/A   Scattered Clouds
9:55 AM 59.7 °F - 46.4 °F 61% 30.20 in 10.0 mi WSW 10.4 mph 17.3 mph N/A   Mostly Cloudy
10:14 AM 59.4 °F - 46.2 °F 62% 30.20 in 10.0 mi West 8.1 mph 16.1 mph N/A   Overcast
10:35 AM 60.4 °F - 46.6 °F 60% 30.20 in 10.0 mi West 6.9 mph - N/A   Overcast
10:55 AM 51.3 °F - 43.0 °F 73% 30.21 in 10.0 mi NE 9.2 mph - N/A   Mostly Cloudy
11:15 AM 49.5 °F - 42.6 °F 77% 30.22 in 10.0 mi NE 5.8 mph - N/A   Scattered Clouds
11:35 AM 51.1 °F - 43.3 °F 75% 30.22 in 10.0 mi ENE 6.9 mph - N/A   Scattered Clouds
11:54 AM 50.5 °F - 43.3 °F 76% 30.22 in 10.0 mi ENE 5.8 mph - N/A   Scattered Clouds
12:15 PM 53.6 °F - 44.6 °F 72% 30.21 in 10.0 mi East 4.6 mph - N/A   Scattered Clouds
12:35 PM 57.7 °F - 45.5 °F 64% 30.20 in 10.0 mi North 8.1 mph - N/A   Clear
12:53 PM 55.8 °F - 44.6 °F 66% 30.20 in 10.0 mi NE 8.1 mph - N/A   Clear
1:15 PM 54.9 °F - 45.0 °F 69% 30.20 in 10.0 mi ENE 9.2 mph - N/A   Scattered Clouds
1:35 PM 54.9 °F - 44.2 °F 67% 30.19 in 10.0 mi ENE 8.1 mph - N/A   Clear
1:55 PM 56.1 °F - 45.1 °F 67% 30.19 in 10.0 mi ENE 8.1 mph - N/A   Clear
2:15 PM 54.7 °F - 44.4 °F 68% 30.19 in 10.0 mi NE 8.1 mph - N/A   Scattered Clouds
2:35 PM 55.9 °F - 45.1 °F 67% 30.18 in 10.0 mi NE 10.4 mph - N/A   Scattered Clouds
2:55 PM 55.8 °F - 45.1 °F 67% 30.18 in 10.0 mi ENE 11.5 mph - N/A   Scattered Clouds
3:15 PM 56.3 °F - 44.4 °F 64% 30.17 in 10.0 mi ENE 9.2 mph - N/A   Clear
3:35 PM 56.5 °F - 44.8 °F 65% 30.16 in 10.0 mi NE 10.4 mph - N/A   Clear
3:54 PM 57.2 °F - 44.8 °F 63% 30.16 in 10.0 mi NE 10.4 mph - N/A   Clear
4:15 PM 56.7 °F - 44.2 °F 63% 30.15 in 10.0 mi ENE 11.5 mph - N/A   Scattered Clouds
4:35 PM 55.8 °F - 43.9 °F 64% 30.15 in 10.0 mi ENE 10.4 mph - N/A   Clear
4:55 PM 56.5 °F - 44.2 °F 64% 30.14 in 7.0 mi ENE 10.4 mph - N/A   Scattered Clouds
5:15 PM 53.8 °F - 42.6 °F 66% 30.14 in 7.0 mi NE 11.5 mph - N/A   Scattered Clouds
5:35 PM 56.1 °F - 42.6 °F 61% 30.14 in 7.0 mi NE 8.1 mph - N/A   Scattered Clouds
5:55 PM 57.6 °F - 42.3 °F 57% 30.13 in 10.0 mi NE 10.4 mph - N/A   Clear
6:15 PM 57.0 °F - 41.2 °F 55% 30.13 in 10.0 mi NE 10.4 mph - N/A   Clear
6:35 PM 55.4 °F - 41.0 °F 58% 30.13 in 10.0 mi NE 8.1 mph - N/A   Clear
6:55 PM 54.9 °F - 40.6 °F 59% 30.13 in 10.0 mi NE 5.8 mph - N/A   Scattered Clouds
7:15 PM 53.1 °F - 40.3 °F 62% 30.12 in 10.0 mi ENE 8.1 mph - N/A   Clear
7:35 PM 50.0 °F - 39.0 °F 66% 30.12 in 10.0 mi NE 3.5 mph - N/A   Clear
7:55 PM 48.2 °F - 38.3 °F 69% 30.12 in 10.0 mi NE 3.5 mph - N/A   Clear
8:15 PM 45.9 °F 42.9 °F 37.6 °F 73% 30.12 in 10.0 mi ENE 5.8 mph - N/A   Clear
8:35 PM 44.8 °F 43.3 °F 37.0 °F 74% 30.12 in 10.0 mi NE 3.5 mph - N/A   Clear
8:55 PM 43.7 °F - 36.9 °F 77% 30.11 in 10.0 mi Calm Calm - N/A   Clear
9:15 PM 42.8 °F - 36.5 °F 78% 30.12 in 10.0 mi Calm Calm - N/A   Clear
9:35 PM 41.2 °F - 36.0 °F 82% 30.12 in 10.0 mi Calm Calm - N/A   Clear
9:55 PM 40.1 °F - 35.2 °F 83% 30.11 in 10.0 mi Calm Calm - N/A   Clear
10:15 PM 40.1 °F - 36.5 °F 87% 30.11 in 10.0 mi Calm Calm - N/A   Clear
10:35 PM 40.1 °F - 36.5 °F 87% 30.10 in 10.0 mi Calm Calm - N/A   Clear
10:55 PM 39.4 °F - 36.0 °F 88% 30.11 in 10.0 mi Calm Calm - N/A   Clear
11:15 PM 39.2 °F - 35.8 °F 88% 30.11 in 10.0 mi Calm Calm - N/A   Clear
11:35 PM 39.2 °F - 36.1 °F 89% 30.11 in 10.0 mi Calm Calm - N/A   Clear
11:55 PM 37.0 °F - 34.7 °F 91% 30.10 in 5.0 mi Calm Calm - N/A   Clear